#timestamp,LO_Frequency,Hit,StdDev 
1512612015.6,286047002.2,N
1512612035.4,286047004.6,N
1512612055.3,286047003.6,N
1512612075.1,286047001.6,N
1512612095.9,286047006.3,N
1512612115.7,286047001.3,N
1512612135.5,286047004.2,N
1512612155.4,286047004.2,N
1512612175.2,286047001.3,N
1512612195.0,286047007.4,N
1512612195.9,286047007.4,N
1512612215.8,286047006.9,N
1512612235.6,286046999.8,N
1512612255.5,286047001.4,N
1512612275.3,286047003.8,N
1512612295.1,286047006.5,N
1512612315.9,286047005.4,N
1512612335.7,286047006.0,N
1512612355.5,286047003.1,N
1512612375.4,286047002.1,N
1512612395.2,286047002.6,N
1512612415.1,286047005.2,N
1512612416.0,286047005.2,N
1512612435.8,286047005.0,N
1512612455.6,286047004.7,N
1512612475.5,286047002.2,N
1512612495.3,286047007.5,N
1512612515.2,286047005.6,N
1512612535.9,286047007.4,N
1512612555.7,286047001.9,N
1512612575.6,286046998.4,N
1512612595.4,286047000.4,N
1512612615.2,286046998.3,N
1512612635.1,286047000.5,N
1512612636.0,286047000.5,N
1512612655.8,286046998.5,N
1512612675.7,286047005.9,N
1512612695.5,286047005.4,N
1512612715.3,286047003.2,N
1512612735.2,286047007.1,N
1512612755.9,286047005.6,N
1512612775.7,286047004.9,N
1512612795.6,286047009.7,Y
1512612815.4,286047008.6,P
1512612835.3,286047010.8,P
1512612855.1,286047006.6,N
1512612856.0,286047006.6,N
1512612875.8,286047010.8,Y
1512612895.7,286047003.4,P
1512612915.5,286047002.8,N
1512612935.3,286046999.8,N
1512612955.2,286047004.4,N
1512612975.0,286047002.9,N
1512612975.9,286047002.9,N
1512612995.8,286047003.2,N
1512613015.6,286047007.0,Y
1512613035.4,286047003.2,P
1512613055.3,286047004.3,P
1512613075.1,286046996.6,P
1512613095.9,286046993.5,N
1512613115.7,286046996.0,N
1512613135.5,286046995.9,N
1512613155.4,286046999.1,N
1512613175.2,286046995.1,N
1512613195.0,286046993.7,N
1512613195.9,286046993.7,N
1512613215.8,286046997.4,N
1512613235.6,286046994.8,N
1512613255.5,286046997.3,N
1512613275.3,286046991.7,N
1512613295.1,286046993.3,N
1512613315.9,286046999.6,N
1512613335.7,286046998.0,N
1512613355.5,286046995.6,N
1512613375.4,286046992.7,N
1512613395.2,286046995.6,N
1512613415.0,286046992.3,N
1512613416.0,286046992.3,N
1512613435.8,286046988.6,Y
1512613455.6,286046994.8,P
1512613475.5,286046998.7,N
1512613495.3,286046999.1,N
1512613515.1,286046994.8,N
1512613535.9,286046993.7,Y
1512613555.7,286046990.4,P
1512613575.6,286046992.0,N
1512613595.4,286046998.9,N
1512613615.2,286047000.7,N
1512613635.1,286047003.2,N
1512613636.0,286047003.2,N
1512613655.8,286047000.0,N
1512613675.6,286046995.8,N
1512613695.5,286046995.3,N
1512613715.3,286046994.0,N
1512613735.2,286046995.8,N
1512613755.9,286047000.5,N
1512613775.7,286047002.2,N
1512613795.6,286046999.8,N
1512613815.4,286047003.2,N
1512613835.2,286046996.9,N
1512613855.1,286046999.8,N
1512613856.0,286046999.8,N
1512613875.8,286047004.0,N
1512613895.7,286047005.3,N
1512613915.5,286047007.6,N
1512613935.3,286047008.7,N
1512613955.2,286047003.4,N
1512613975.0,286047003.5,N
1512613975.9,286047003.5,N
1512613995.7,286047004.8,N
1512614015.6,286047005.3,N
1512614035.4,286047008.9,N
1512614055.3,286047005.9,N
1512614075.1,286047009.0,N
1512614095.8,286047005.8,N
1512614115.7,286047002.6,N
1512614135.5,286047004.5,N
1512614155.4,286047003.8,N
1512614175.2,286047003.4,N
1512614195.0,286047009.0,N
1512614195.9,286047009.0,N
1512614215.8,286047006.9,N
1512614235.6,286047009.5,N
1512614255.4,286047009.9,N
1512614275.3,286047012.0,Y
1512614295.1,286047005.3,P
1512614315.9,286047001.4,P
1512614335.7,286046998.5,N
1512614355.5,286047004.1,N
1512614375.4,286046999.9,N
1512614395.2,286046999.3,N
1512614415.1,286046998.2,N
1512614416.0,286046998.2,N
1512614435.8,286047001.8,N
1512614455.6,286047004.3,N
1512614475.5,286047005.8,N
1512614495.3,286046998.5,N
1512614515.1,286046998.1,N
1512614535.9,286046999.6,N
1512614555.7,286046999.5,N
1512614575.6,286046995.2,N
1512614595.4,286046997.1,N
1512614615.2,286047000.2,N
1512614635.1,286047002.9,N
1512614636.0,286047002.9,N
1512614655.8,286047005.7,N
1512614675.6,286047005.8,N
1512614695.5,286047000.9,N
1512614715.3,286046998.2,N
1512614735.2,286047000.2,N
1512614755.9,286046999.7,N
1512614775.7,286047000.4,N
1512614795.6,286046999.6,N
1512614815.4,286046996.9,N
1512614835.2,286046999.5,N
1512614855.1,286046998.2,N
1512614856.0,286046998.2,N
1512614875.8,286047005.4,N
1512614895.7,286047005.0,N
1512614915.5,286047000.9,N
1512614935.3,286047003.7,N
1512614955.2,286047001.6,N
1512614975.0,286046999.0,N
1512614975.9,286046999.0,N
1512614995.7,286046999.6,N
1512615015.6,286046996.5,N
1512615035.4,286047004.0,N
1512615055.3,286047001.6,N
1512615075.1,286047004.3,N
1512615076.0,286047004.3,N
1512615095.8,286047000.5,N
1512615115.7,286046997.1,N
1512615135.5,286046995.1,N
1512615155.3,286047000.1,N
1512615175.2,286047001.9,N
1512615195.0,286047001.3,N
1512615195.9,286047001.3,N
1512615215.8,286047002.2,N
1512615235.6,286047004.2,N
1512615255.4,286047004.8,N
1512615275.3,286047008.7,Y
1512615295.1,286047002.9,P
1512615315.9,286047007.4,P
1512615335.7,286047007.5,N
1512615355.5,286047007.2,N
1512615375.4,286047004.1,N
1512615395.2,286047003.0,N
1512615415.0,286047005.3,N
1512615415.9,286047005.3,N
1512615435.8,286046999.7,N
1512615455.6,286046997.4,N
1512615475.5,286046999.7,N
1512615495.3,286046998.3,N
1512615515.1,286046998.1,N
1512615535.9,286047002.5,N
1512615555.7,286047002.1,N
1512615575.5,286047000.6,N
1512615595.4,286046995.2,N
